Location: Bazugues
(43.4465°N, 0.3432°E)
Time: 20:27:23
(UTC+00:00)

Okean 2 - Pass Details

Date: 12 January 2026
Orbit: 515 x 525 km, 82.5° (Epoch: 13 February)

Event Time Altitude Azimuth Distance (km) Brightness Sun altitude
Rises 18:56:40 0° 197° (SSW) 2,643 7.1 -23.4°
Reaches altitude 10° 18:58:49 10° 201° (SSW) 1,757 6.2 -23.8°
Maximum altitude 19:02:37 56° 280° (W) 630 3.8 -24.5°
Enters shadow 19:03:10 50° 315° (NW) 673 3.9 -24.6°
